Location: Korczew
(51.3586°N, 19.4491°E)
Time: 08:45:12
(UTC+00:00)

Nadezhda 1 Rocket - Pass Details

Date: 19 May 2025
Orbit: 941 x 1003 km, 83.0° (Epoch: 17 June)

Event Time Altitude Azimuth Distance (km) Brightness Sun altitude
Rises 19:48:38 0° 194° (SSW) 3,599 6.6 -9.6°
Reaches altitude 10° 19:51:07 10° 197° (SSW) 2,662 6.0 -9.8°
Maximum altitude 19:57:11 73° 281° (WNW) 1,002 4.2 -10.4°
Drops below altitude 10° 20:03:24 10° 7° (N) 2,715 7.0 -11.0°
Sets 20:05:57 0° 10° (N) 3,675 7.7 -11.2°
